TimeCST,TemperatureF,Dew PointF,Humidity,Sea Level PressureIn,VisibilityMPH,Wind Direction,Wind SpeedMPH,Gust SpeedMPH,PrecipitationIn,Events,Conditions,WindDirDegrees,DateUTC
12:53 AM,30.0,25.0,82,30.27,10.0,NNW,4.6,-,N/A,,Overcast,330,2012-11-04 05:53:00
1:53 AM,30.0,25.0,82,30.27,10.0,Calm,Calm,-,N/A,,Overcast,0,2012-11-04 06:53:00
1:53 AM,28.9,24.1,82,30.27,10.0,NW,4.6,-,N/A,,Scattered Clouds,320,2012-11-04 07:53:00
2:53 AM,27.0,24.1,89,30.27,10.0,WNW,4.6,-,N/A,,Clear,300,2012-11-04 08:53:00
3:53 AM,28.9,25.0,85,30.28,10.0,North,4.6,-,N/A,,Overcast,350,2012-11-04 09:53:00
4:53 AM,27.0,24.1,89,30.28,10.0,NW,3.5,-,N/A,,Mostly Cloudy,320,2012-11-04 10:53:00
5:53 AM,27.0,21.9,81,30.29,10.0,North,3.5,-,N/A,,Partly Cloudy,350,2012-11-04 11:53:00
6:53 AM,26.1,21.9,84,30.30,9.0,Calm,Calm,-,N/A,,Partly Cloudy,0,2012-11-04 12:53:00
7:53 AM,30.9,26.1,82,30.31,9.0,North,4.6,-,N/A,,Scattered Clouds,360,2012-11-04 13:53:00
8:53 AM,33.1,26.1,75,30.30,10.0,North,5.8,-,N/A,,Scattered Clouds,360,2012-11-04 14:53:00
9:23 AM,35.6,26.6,70,30.27,10.0,North,8.1,-,N/A,,Mostly Cloudy,360,2012-11-04 15:23:00
9:33 AM,35.6,26.6,70,30.26,10.0,North,8.1,-,N/A,,Scattered Clouds,10,2012-11-04 15:33:00
9:53 AM,37.0,26.1,65,30.29,10.0,North,8.1,-,N/A,,Partly Cloudy,360,2012-11-04 15:53:00
10:53 AM,39.9,26.1,58,30.28,10.0,NE,3.5,-,N/A,,Mostly Cloudy,40,2012-11-04 16:53:00
11:53 AM,39.0,25.0,57,30.27,10.0,Calm,Calm,-,N/A,,Overcast,0,2012-11-04 17:53:00
12:53 PM,39.9,26.1,58,30.26,10.0,Calm,Calm,-,N/A,,Mostly Cloudy,0,2012-11-04 18:53:00
1:53 PM,42.1,26.1,53,30.25,10.0,North,4.6,-,N/A,,Scattered Clouds,360,2012-11-04 19:53:00
2:53 PM,39.9,26.1,58,30.25,10.0,East,6.9,-,N/A,,Partly Cloudy,100,2012-11-04 20:53:00
3:53 PM,37.9,26.1,62,30.25,10.0,NE,8.1,-,N/A,,Clear,50,2012-11-04 21:53:00
4:53 PM,33.1,24.1,70,30.25,10.0,ENE,4.6,-,N/A,,Clear,60,2012-11-04 22:53:00
5:53 PM,30.9,26.1,82,30.25,10.0,Calm,Calm,-,N/A,,Clear,0,2012-11-04 23:53:00
6:53 PM,28.9,25.0,85,30.27,10.0,Calm,Calm,-,N/A,,Clear,0,2012-11-05 00:53:00
7:53 PM,28.0,24.1,85,30.26,9.0,Calm,Calm,-,N/A,,Clear,0,2012-11-05 01:53:00
8:53 PM,27.0,24.1,89,30.26,9.0,Calm,Calm,-,N/A,,Clear,0,2012-11-05 02:53:00
9:53 PM,28.9,25.0,85,30.26,8.0,NW,3.5,-,N/A,,Overcast,320,2012-11-05 03:53:00
10:53 PM,30.9,27.0,85,30.25,8.0,WNW,4.6,-,N/A,,Overcast,300,2012-11-05 04:53:00